Wind_Speed
10 10 10 10 10 11 12 12 12 13 14 15 15 15 14 14 14 14 15 14 14 14 13 13 13 13 13 13 14 14 15 15 15 16 16 16 16 16
11 11 11 12 12 12 12 12 12 13 14 14 15 15 15 14 15 15 15 14 14 14 13 13 13 14 14 15 15 15 15 16 16 16 16 16 16 16
12 13 13 13 13 13 13 13 13 13 14 14 14 14 14 15 15 15 15 15 15 14 14 14 13 14 14 14 15 15 15 16 16 16 16 16 17 17
14 14 14 14 14 14 14 14 14 14 15 15 15 15 15 15 15 15 15 16 15 15 15 15 14 14 15 15 16 16 16 16 16 16 16 17 17 17
15 15 15 15 15 15 15 15 15 15 16 16 16 16 17 17 17 17 16 16 16 16 15 15 15 16 16 16 16 17 16 16 16 16 16 16 16 16
16 17 17 17 17 16 16 16 16 17 17 17 17 17 18 18 17 17 17 17 17 17 17 16 16 16 16 17 16 16 16 16 16 16 16 17 16 16
18 18 18 18 18 17 17 17 18 18 18 18 18 18 18 18 18 18 18 18 18 17 17 17 17 17 17 17 17 17 16 16 16 16 16 17 16 16
19 19 19 19 18 18 18 19 19 19 19 19 19 19 19 19 19 19 19 19 19 19 19 18 18 18 18 18 18 18 18 17 17 17 17 17 17 17
20 20 20 20 20 19 20 20 20 20 20 20 20 20 20 20 20 20 20 21 20 20 20 19 19 19 18 18 19 19 18 18 18 18 18 18 18 19
20 20 21 21 21 20 21 21 21 21 21 21 21 21 21 21 21 20 21 21 21 21 21 20 20 20 19 19 19 19 18 18 18 19 18 19 19 19
21 21 21 22 22 22 22 21 21 21 21 21 21 22 22 22 22 22 22 21 22 22 22 22 21 21 20 20 19 19 19 19 20 20 20 19 19 19
22 22 22 23 23 23 23 22 22 22 22 22 22 22 23 23 23 23 23 23 23 23 23 23 22 22 22 21 20 20 20 20 20 20 20 20 20 19
24 23 23 23 23 23 23 23 23 23 22 23 23 23 24 24 24 24 24 23 24 24 24 23 23 23 23 22 22 21 21 21 21 21 20 20 20 20
25 24 24 23 24 24 24 24 24 24 24 23 24 24 24 25 25 25 25 25 24 24 24 24 24 24 24 24 23 22 22 21 21 21 21 21 21 21
25 25 25 24 25 25 25 25 25 25 25 25 25 25 25 25 25 26 26 26 25 25 24 24 24 24 24 24 24 24 23 22 21 21 22 22 22 22
25 25 25 25 26 26 26 26 26 27 26 26 26 26 26 26 26 26 26 26 25 25 25 25 25 24 24 24 24 24 24 23 23 23 23 23 23 24
27 27 26 26 26 27 26 27 27 27 27 27 27 27 27 27 27 26 26 26 25 25 24 25 25 25 25 25 25 24 24 24 24 24 24 24 24 25
27 27 27 27 27 27 28 28 27 27 28 28 27 27 27 27 27 26 26 26 26 25 25 25 26 26 26 25 26 26 26 26 26 26 26 26 26 26
28 28 27 27 27 28 28 28 28 28 28 28 28 28 27 27 27 27 26 26 26 27 26 26 27 27 26 26 26 27 27 27 27 27 27 27 27 27
28 28 28 28 28 28 28 27 27 27 27 27 27 27 27 27 27 27 27 27 27 27 27 27 27 27 27 27 26 26 28 28 28 28 28 28 28 28
29 29 29 28 28 28 28 27 27 27 27 27 27 27 26 27 26 27 27 28 28 27 27 26 26 27 27 27 27 27 28 28 28 29 29 29 29 28
30 30 29 29 29 28 28 28 27 27 27 27 27 27 27 27 26 26 27 28 28 28 27 27 27 27 28 28 28 28 28 28 28 29 29 30 30 29
31 31 31 30 30 29 28 28 28 28 28 28 27 28 28 27 27 27 27 27 28 28 28 28 28 28 28 28 28 28 29 29 29 29 29 29 29 29
Wind_Direction
277 278 278 280 279 280 282 284 287 288 289 292 294 296 296 298 297 296 296 295 294 295 291 286 285 284 284 285 285 283 284 281 279 279 278 277 278 277
277 279 281 281 282 282 285 287 288 290 290 291 292 294 294 298 298 295 293 293 293 291 290 288 286 282 281 283 283 283 282 281 282 280 278 278 279 279
277 278 280 280 282 283 284 285 288 290 292 293 293 294 294 298 299 296 293 292 292 289 287 286 285 283 283 284 283 283 283 281 282 281 278 278 276 277
276 277 278 278 282 285 285 286 288 290 292 291 291 292 294 298 297 296 293 291 291 289 287 286 285 285 285 285 285 285 284 284 284 284 282 281 281 280
276 276 276 277 281 284 285 286 288 289 291 289 288 290 292 294 294 294 292 291 289 288 287 287 287 286 287 288 287 286 283 280 283 285 284 285 284 281
275 275 277 278 280 281 283 286 289 290 290 289 288 288 290 293 291 290 289 288 287 287 287 287 287 288 288 287 286 286 281 280 283 285 287 287 285 281
275 275 278 279 278 279 282 286 289 291 291 290 288 288 289 290 288 286 285 285 284 285 285 286 286 286 286 286 285 285 284 284 284 285 288 289 286 280
275 275 277 279 279 279 281 284 287 289 290 289 288 288 288 289 287 285 283 282 282 282 283 285 285 285 284 284 283 283 283 282 283 284 286 288 288 283
272 274 276 277 278 279 281 283 284 286 287 287 287 287 287 288 285 283 282 280 280 280 281 282 284 285 284 282 284 283 281 281 282 284 285 286 287 286
273 274 275 276 276 278 281 282 283 284 285 285 284 284 286 286 284 282 282 280 279 279 280 281 281 282 283 284 283 281 278 280 282 284 285 286 287 285
274 274 274 276 274 276 279 280 281 282 283 284 283 283 284 285 284 281 281 280 278 279 279 279 279 280 282 283 283 280 278 279 281 282 283 285 286 285
272 274 275 275 275 276 277 278 279 280 282 282 282 283 284 283 282 282 281 280 278 278 278 278 277 278 279 280 281 280 278 279 279 280 281 283 283 283
271 273 274 274 274 275 276 276 277 279 281 282 282 282 283 283 281 281 280 281 280 278 278 277 277 277 277 278 279 278 277 277 279 279 280 281 282 282
270 272 273 273 273 274 274 276 276 278 280 282 282 283 283 282 280 280 280 280 280 278 276 277 277 276 276 276 276 276 276 276 277 278 278 279 280 282
270 271 271 270 273 273 273 275 276 278 281 281 281 283 283 282 281 280 279 279 278 278 275 277 277 276 275 275 275 274 273 275 276 278 278 279 280 280
269 270 269 269 271 272 273 273 275 278 280 281 281 282 282 282 281 280 280 278 277 277 274 276 277 276 276 275 275 275 273 274 275 277 278 278 280 281
268 268 268 270 272 272 273 275 277 277 278 280 280 280 279 280 279 278 279 278 277 277 274 274 275 276 276 277 276 275 273 274 274 275 277 278 280 281
267 266 268 270 272 274 275 276 277 278 279 279 278 278 278 278 277 276 277 277 278 277 275 274 275 275 275 276 276 275 273 274 275 275 277 279 280 281
267 267 268 271 273 274 274 275 277 277 277 276 276 277 277 276 275 275 276 277 278 277 276 275 275 276 275 275 276 275 275 274 276 276 278 280 282 281
268 268 270 272 273 274 274 276 277 278 277 276 275 275 275 275 275 275 275 276 277 278 277 277 277 275 274 275 275 274 275 276 277 278 279 280 280 281
269 270 271 272 272 272 273 275 277 277 276 276 275 274 273 274 275 275 274 275 275 277 277 279 278 275 274 275 275 275 274 275 278 279 280 280 280 281
269 269 270 271 271 272 272 273 274 275 274 273 272 272 273 274 275 276 275 275 275 276 277 276 276 276 277 278 276 276 275 275 276 278 279 280 281 281
270 269 269 270 271 271 271 272 273 273 272 272 273 272 271 272 274 275 276 276 276 275 275 275 275 276 277 278 277 277 275 275 276 277 277 279 280 279
Height
5813 5813 5812 5812 5811 5810 5810 5809 5808 5807 5805 5804 5803 5801 5800 5798 5797 5795 5794 5792 5790 5789 5788 5786 5785 5784 5783 5782 5781 5780 5779 5778 5777 5777 5776 5775 5774 5773
5810 5810 5809 5809 5808 5807 5806 5805 5804 5803 5802 5800 5799 5797 5796 5795 5793 5791 5790 5788 5787 5786 5784 5783 5781 5780 5779 5779 5778 5776 5775 5774 5773 5772 5771 5770 5769 5768
5807 5807 5806 5805 5805 5804 5803 5802 5801 5800 5798 5797 5795 5794 5792 5791 5789 5787 5786 5785 5783 5782 5781 5779 5778 5777 5776 5775 5773 5772 5771 5770 5769 5767 5766 5765 5764 5763
5803 5803 5802 5801 5801 5800 5799 5798 5797 5796 5794 5793 5791 5790 5788 5787 5785 5783 5782 5780 5779 5778 5777 5775 5774 5773 5772 5770 5769 5767 5766 5765 5764 5762 5761 5760 5759 5758
5799 5798 5798 5797 5796 5795 5794 5794 5792 5791 5790 5789 5787 5785 5784 5782 5781 5779 5777 5776 5775 5773 5772 5771 5770 5768 5767 5765 5764 5762 5761 5760 5759 5757 5756 5755 5754 5752
5794 5793 5793 5792 5791 5790 5790 5789 5787 5786 5785 5783 5782 5780 5779 5777 5776 5774 5773 5771 5770 5769 5768 5767 5765 5763 5762 5760 5759 5757 5756 5755 5753 5752 5751 5750 5748 5747
5788 5788 5787 5786 5786 5785 5784 5783 5782 5781 5779 5778 5776 5775 5773 5772 5770 5769 5768 5766 5765 5764 5763 5762 5760 5759 5757 5756 5754 5752 5751 5750 5749 5747 5746 5745 5743 5742
5782 5782 5781 5781 5780 5780 5779 5778 5776 5775 5774 5772 5770 5769 5768 5766 5765 5763 5762 5761 5760 5759 5758 5756 5755 5753 5752 5751 5749 5747 5746 5745 5744 5742 5741 5740 5738 5737
5776 5776 5775 5775 5774 5774 5773 5772 5770 5769 5768 5766 5765 5763 5762 5760 5759 5758 5756 5755 5754 5753 5752 5751 5749 5748 5746 5745 5743 5742 5740 5739 5738 5737 5736 5735 5733 5732
5769 5769 5769 5768 5768 5767 5766 5765 5764 5763 5761 5760 5758 5757 5755 5754 5752 5751 5750 5748 5747 5746 5745 5744 5743 5741 5740 5738 5737 5736 5735 5734 5733 5731 5730 5729 5727 5726
5763 5762 5762 5762 5761 5760 5759 5758 5757 5756 5754 5753 5751 5750 5748 5747 5745 5744 5742 5741 5740 5739 5738 5737 5736 5735 5734 5732 5731 5730 5729 5728 5727 5725 5724 5723 5721 5720
5756 5755 5755 5754 5754 5753 5752 5751 5750 5749 5747 5746 5744 5743 5741 5739 5738 5736 5735 5734 5733 5732 5731 5730 5729 5728 5727 5726 5724 5723 5722 5721 5720 5719 5718 5717 5715 5714
5748 5748 5747 5747 5746 5745 5744 5743 5742 5741 5740 5738 5737 5735 5733 5732 5730 5729 5727 5726 5725 5724 5723 5722 5722 5720 5719 5719 5718 5717 5715 5714 5713 5712 5711 5710 5709 5708
5740 5740 5739 5739 5738 5737 5736 5736 5735 5733 5732 5731 5729 5728 5726 5724 5723 5721 5719 5718 5717 5716 5715 5714 5714 5713 5712 5711 5711 5710 5708 5707 5706 5705 5705 5704 5703 5702
5732 5731 5731 5730 5730 5729 5728 5727 5726 5725 5724 5723 5721 5720 5718 5716 5715 5713 5712 5710 5709 5708 5707 5706 5705 5704 5703 5703 5703 5702 5701 5700 5699 5698 5698 5697 5696 5695
5723 5723 5722 5722 5721 5720 5720 5719 5718 5717 5716 5714 5713 5712 5710 5708 5707 5705 5704 5703 5702 5700 5699 5698 5697 5696 5695 5695 5694 5694 5693 5693 5692 5691 5690 5689 5688 5687
5714 5714 5714 5713 5713 5712 5711 5710 5709 5708 5707 5706 5704 5703 5701 5700 5699 5697 5696 5695 5694 5693 5692 5690 5689 5688 5687 5687 5686 5686 5685 5685 5684 5684 5683 5682 5681 5679
5705 5705 5705 5705 5704 5703 5702 5701 5700 5699 5698 5697 5695 5694 5692 5691 5690 5689 5688 5687 5686 5684 5684 5683 5682 5681 5680 5679 5678 5677 5677 5676 5676 5675 5675 5674 5673 5672
5696 5696 5696 5696 5695 5694 5693 5692 5691 5690 5689 5688 5686 5685 5684 5683 5682 5680 5679 5678 5677 5676 5675 5674 5673 5672 5671 5671 5670 5669 5668 5668 5667 5667 5666 5665 5664 5663
5687 5687 5687 5686 5686 5685 5684 5683 5682 5681 5680 5679 5678 5676 5675 5674 5673 5672 5671 5670 5669 5668 5667 5666 5664 5663 5662 5662 5661 5660 5659 5658 5658 5657 5657 5656 5655 5654
5678 5677 5677 5676 5676 5675 5675 5674 5673 5672 5671 5670 5669 5668 5667 5666 5665 5664 5663 5662 5661 5659 5658 5657 5656 5654 5653 5652 5652 5651 5650 5649 5648 5648 5647 5646 5645 5644
5668 5667 5667 5667 5666 5666 5665 5664 5664 5663 5662 5661 5660 5659 5658 5658 5656 5655 5654 5653 5652 5651 5650 5649 5647 5646 5645 5644 5643 5642 5641 5640 5639 5638 5637 5636 5635 5634
5658 5658 5657 5657 5657 5656 5656 5655 5654 5654 5653 5652 5651 5651 5650 5649 5648 5646 5645 5644 5643 5642 5641 5640 5639 5637 5636 5635 5634 5633 5632 5631 5630 5629 5628 5627 5626 5625